Location: Unspecified
(0.0000°N, 0.0000°E)
Time: 05:40:48
(UTC+02:00)

Vanguard 1 - Visible Passes

Search period start: 02 May 2016 00:00
Search period end: 12 May 2016 00:00
Orbit: 650 x 3834 km, 34.2° (Epoch: 30 April)

Date Brightness Start Highest point End Pass type
(mag) Time Alt. Az. Time Alt. Az. Time Alt. Az.
02 May 11.8 21:53:50 10° SW 22:04:34 34° SSE 22:04:34 34° SSE visible
03 May 11.6 22:14:59 10° SW 22:24:59 42° S 22:24:59 42° S visible
04 May 12.4 20:10:32 10° SSW 20:23:55 25° SSE 20:32:35 10° ESE visible
04 May 11.6 22:36:20 10° SW 22:45:29 46° SSW 22:45:29 46° SSW visible
05 May 12.1 20:31:49 10° SW 20:46:19 33° SSE 20:53:17 17° ESE visible
05 May 11.8 22:57:58 10° SW 23:06:04 42° WSW 23:06:04 42° WSW visible
06 May 11.8 20:53:06 10° SW 21:08:26 42° SSE 21:13:57 25° E visible
06 May 12.2 23:19:58 10° WSW 23:26:44 33° W 23:26:44 33° W visible
07 May 11.4 21:14:29 10° SW 21:30:16 57° SSE 21:34:41 34° E visible
07 May 12.6 23:42:26 10° WSW 23:47:30 24° W 23:47:30 24° W visible
08 May 11.2 21:36:03 10° SW 21:51:49 77° SE 21:55:31 43° ENE visible
09 May 12.9 00:05:34 10° W 00:08:20 16° W 00:08:20 16° W visible
09 May 12.9 07:20:29 10° N 07:24:50 16° NE 07:30:37 10° ENE visible
09 May 11.2 21:57:53 10° SW 22:13:04 79° NW 22:16:25 45° NE visible
10 May 11.5 22:20:05 10° WSW 22:34:06 56° NW 22:37:23 39° NNE visible
11 May 11.9 20:13:28 10° SW 20:32:37 64° SSE 20:42:57 10° ENE visible
11 May 12.0 22:42:46 10° WSW 22:54:59 39° NW 22:58:22 29° N visible
